STARLINK-35926, 66642

Orbit data source: Space-Track

STARLINK-35926, 66642 is a payload satellite owned by SpaceX/Seattle (US) in LEO that was launched on Sun, 23 Nov 2025 UTC via an FALCON 9 launch vehicle from the Air Force Western Test Range (AFWTR). Payload-class satellites include a variety of spacecraft equipped with specific instruments for various scientific and technological missions. These include communications satellites like Starlink; space stations such as the ISS; scientific satellites like the Hubble; Earth observation satellites from companies like Planet Labs, Umbra, and HawkEye 360; GPS; miniature CubeSats for education and research; and military/defense satellites.

Loading next visibility...
Identifier
66642, 2025-271AB
Orbit
LEO
Country
Flag of USUS
Related business
Manufacturer
SpaceX/Seattle
Mission
Operational Commercial Communications
Bus & Motor
STARLINK V2MO, Unknown motor
Mass
575 kg wet, ~530 kg dry
Launch date (UTC)
2025-11-23 (2 months ago)
Launch vehicle
FALCON 9
Launch site
Air Force Western Test Range (AFWTR)
Object type
Payload
Rocket body
Debris
Shape & HBR
Box + 2 Pan, 17.7 m
Radar Cross Section
36.964 m²

Expand to show TLE details & history
Last TLE update: 8 hours ago

TLE from 8 hours ago
0 STARLINK-35926
1 66642U 25271AB  26036.94744693  .00047820  00000-0  16148-2 0  9997
2 66642  53.1582 287.5935 0001079 104.9100 255.2020 15.30230044 12664
Epoch: 2026-02-05T22:44Z
TLE epoch observation values (Epoch: 2026-02-05T22:44:19.414Z)
Latitude
-0.00006°
Longitude
170.4202°
Altitude
476.214 km
Speed
7.629 km/s
True Right ascension
19h 10m 22s
True Declination
0° 00' 00"
Sunlit
Object was in daylight at epoch
Visualization orbit readout
Latitude
Unknown
Longitude
Unknown
Altitude
Unknown
Speed
Unknown
Apparent Right ascension
Unknown
Apparent Declination
Unknown
Sunlit
N/A
Visualization observer readout
Local Sidereal Time
09:07:44
Azimuth
Unknown
Elevation
Unknown
Doppler factor
Unknown
Orbital elements
Apogee altitude
476.122 km
Perigee altitude
474.643 km
Semi-major axis
6,853.519 km
Eccentricity
0.00011
Inclination
53.1582°
RAAN
287.5935°
Arg. of periapsis
104.91°
True anomaly
255.19005°
Mean anomaly
255.202°
Eccentric anomaly
255.19602°
Mean motion
3.82536 °/min
Orbital period
94.11 mins
BSTAR
0.0016148
Loading maneuver chart data...
Computing Atmospheric mass density...
Loading historical data...
Loading historical data...
Loading historical data...
Loading historical data...
Loading historical data...
Loading historical data...
Loading historical data...

Documentation

Showing up to 5 results
|